This is the latest recevied weather packets stored in our database for station/object KC5DAQ-29. If no packets are shown the sender has not sent any weather packets the latest 1 day(s).
| Time | Temp. | Humidity | Pressure | Rain* | Wind** | Luminosity | Snow |
|---|---|---|---|---|---|---|---|
| 1778000043 | 25.56° C | 100% | 1007 hPa | 0 mm | 0.89 m/s, 197° | 281 W/m² | - |
| 1777999983 | 25.56° C | 100% | 1007.1 hPa | 0 mm | 1.34 m/s, 169° | 276 W/m² | - |
| 1777999922 | 25.56° C | 100% | 1007.1 hPa | 0 mm | 1.34 m/s, 176° | 276 W/m² | - |
| 1777999862 | 25.56° C | 100% | 1007 hPa | 0 mm | 1.34 m/s, 165° | 276 W/m² | - |
| 1777999804 | 25.56° C | 100% | 1007.1 hPa | 0 mm | 0.89 m/s, 188° | 276 W/m² | - |
| 1777999742 | 25.56° C | 100% | 1007.1 hPa | 0 mm | 0 m/s | 276 W/m² | - |
| 1777999683 | 25.56° C | 100% | 1007 hPa | 0 mm | 0.45 m/s, 227° | 273 W/m² | - |
| 1777999622 | 25.56° C | 100% | 1007.1 hPa | 0 mm | 1.79 m/s, 227° | 260 W/m² | - |
| 1777999563 | 25.56° C | 100% | 1007.1 hPa | 0 mm | 1.79 m/s, 195° | 260 W/m² | - |
| 1777999503 | 25.56° C | 100% | 1007.1 hPa | 0 mm | 1.79 m/s, 223° | 260 W/m² | - |
| 1777999443 | 25.56° C | 100% | 1007.1 hPa | 0 mm | 2.24 m/s, 169° | 260 W/m² | - |
| 1777999384 | 25.56° C | 100% | 1007.1 hPa | 0 mm | 1.79 m/s, 197° | 260 W/m² | - |
| 1777999322 | 25.56° C | 100% | 1007 hPa | 0 mm | 0.45 m/s, 148° | 236 W/m² | - |
| 1777999264 | 25.56° C | 100% | 1007.1 hPa | 0 mm | 0.45 m/s, 190° | 236 W/m² | - |
| 1777999196 | 25.56° C | 100% | 1007 hPa | 0 mm | 0.89 m/s, 185° | 236 W/m² | - |
| 1777999130 | 25.56° C | 100% | 1007 hPa | 0 mm | 1.34 m/s, 204° | 236 W/m² | - |
| 1777999068 | 25.56° C | 100% | 1007 hPa | 0 mm | 0.89 m/s, 161° | 236 W/m² | - |
| 1777999009 | 25.56° C | 100% | 1007 hPa | 0 mm | 0.45 m/s, 188° | 236 W/m² | - |
| 1777998950 | 25.56° C | 100% | 1006.9 hPa | 0 mm | 0 m/s | 165 W/m² | - |
| 1777998889 | 25.56° C | 100% | 1006.9 hPa | 0 mm | 0.45 m/s, 166° | 165 W/m² | - |
| 1777998829 | 25.56° C | 100% | 1007 hPa | 0 mm | 0.45 m/s, 166° | 165 W/m² | - |
| 1777998768 | 25.56° C | 100% | 1007 hPa | 0 mm | 0 m/s | 165 W/m² | - |
| 1777998708 | 25.56° C | 100% | 1007 hPa | 0 mm | 0 m/s | 165 W/m² | - |
| 1777998650 | 25° C | 100% | 1007 hPa | 0 mm | 0.89 m/s, 168° | 165 W/m² | - |
| 1777998590 | 25° C | 100% | 1007 hPa | 0 mm | 0.89 m/s, 179° | 165 W/m² | - |
* Rain latest hour (hover to see other rain measurements)
** Current wind speed in m/s (hover to see current wind gust speed)